Weather History for Philadelphia Wings Airport, PA

Change the Weather History Date:

Wednesday, October 23, 2013

  Actual Average (KPNE) Record (KPNE)
Temperature  
Mean Temperature 46 °F -  
Max Temperature 55 °F 60 °F 81 °F (2007)
Min Temperature 37 °F 41 °F 30 °F (1997)
Degree Days  
Heating Degree Days 19    
Moisture  
Dew Point 36 °F    
Average Humidity 69    
Maximum Humidity 93    
Minimum Humidity 47    
Precipitation  
Precipitation 0.00 in - - ()
Sea Level Pressure  
Sea Level Pressure 29.74 in    
Wind  
Wind Speed 1 mph (NNW)    
Max Wind Speed 10 mph    
Max Gust Speed -    
Visibility 10 miles    
Events      
Averages and records for this station are not official NWS values.
T = Trace of Precipitation, MM = Missing Value Source: NWS Daily Summary

Daily Weather History Graph

Daily Weather History Graph

Search for Another Location

Airport:

Trip Planner

Search our weather history database for the weather conditions in past years. The results will help you decide how hot, cold, wet, or windy it might be!

Date:

Astronomy

Oct. 23, 2013 Rise Set
Actual Time 7:20 AM EDT 6:09 PM EDT
Civil Twilight 6:52 AM EDT 6:37 PM EDT
Nautical Twilight 6:21 AM EDT 7:08 PM EDT
Astronomical Twilight 5:49 AM EDT 7:40 PM EDT
Moon 9:38 PM EDT (10/23) 11:35 AM EDT (10/23)
Length of Visible Light 11h 44m
Length of Day
10h 49m
Waning Gibbous, 79% of the Moon is Illuminated
Oct 23
Waning Gibbous
Oct 26
Last Quarter
Nov 3
New
Nov 10
First Quarter
Nov 17
Full

Hourly Weather History & Observations

Time (EDT) Temp. Windchill Dew Point Humidity Pressure Visibility Wind Dir Wind Speed Gust Speed Precip Events Conditions
12:15 AM 37.4 °F - 35.6 °F 93% 29.83 in 10.0 mi Calm Calm - N/A   Clear
12:35 AM 37.4 °F - 35.6 °F 93% 29.83 in 10.0 mi Calm Calm - N/A   Scattered Clouds
12:55 AM 39.2 °F - 35.6 °F 87% 29.82 in 10.0 mi Calm Calm - N/A   Clear
1:15 AM 37.4 °F - 35.6 °F 93% 29.81 in 10.0 mi Calm Calm - N/A   Clear
1:35 AM 37.4 °F - 35.6 °F 93% 29.82 in 10.0 mi Calm Calm - N/A   Scattered Clouds
1:55 AM 39.2 °F - 37.4 °F 93% 29.81 in 10.0 mi Calm Calm - N/A   Scattered Clouds
2:15 AM 42.8 °F - 35.6 °F 76% 29.81 in 10.0 mi Calm Calm - N/A   Mostly Cloudy
2:35 AM 41.0 °F - 37.4 °F 87% 29.82 in 10.0 mi Calm Calm - N/A   Mostly Cloudy
2:55 AM 42.8 °F - 37.4 °F 81% 29.81 in 10.0 mi Calm Calm - N/A   Mostly Cloudy
3:15 AM 42.8 °F - 37.4 °F 81% 29.80 in 10.0 mi Calm Calm - N/A   Overcast
3:35 AM 42.8 °F - 33.8 °F 70% 29.80 in 10.0 mi Calm Calm - N/A   Mostly Cloudy
3:55 AM 42.8 °F - 33.8 °F 70% 29.78 in 10.0 mi Calm Calm - N/A   Scattered Clouds
4:15 AM 42.8 °F - 33.8 °F 70% 29.78 in 10.0 mi Calm Calm - N/A   Mostly Cloudy
4:35 AM 42.8 °F - 35.6 °F 76% 29.77 in 10.0 mi Calm Calm - N/A   Overcast
4:55 AM 41.0 °F - 37.4 °F 87% 29.77 in 10.0 mi Calm Calm - N/A   Overcast
5:15 AM 41.0 °F - 37.4 °F 87% 29.78 in 10.0 mi Calm Calm - N/A   Overcast
5:35 AM 41.0 °F - 37.4 °F 87% 29.78 in 10.0 mi Calm Calm - N/A   Mostly Cloudy
5:55 AM 42.8 °F - 37.4 °F 81% 29.78 in 10.0 mi Calm Calm - N/A   Mostly Cloudy
6:15 AM 41.0 °F - 39.2 °F 93% 29.76 in 10.0 mi Calm Calm - N/A   Scattered Clouds
6:35 AM 41.0 °F - 37.4 °F 87% 29.77 in 10.0 mi Calm Calm - N/A   Clear
6:55 AM 41.0 °F - 37.4 °F 87% 29.77 in 10.0 mi Calm Calm - N/A   Clear
7:15 AM 42.8 °F - 35.6 °F 76% 29.77 in 10.0 mi Calm Calm - N/A   Scattered Clouds
7:35 AM 42.8 °F - 37.4 °F 81% 29.76 in 10.0 mi Calm Calm - N/A   Clear
7:55 AM 42.8 °F - 37.4 °F 81% 29.77 in 10.0 mi Calm Calm - N/A   Clear
8:15 AM 42.8 °F - 37.4 °F 81% 29.77 in 10.0 mi Calm Calm - N/A   Mostly Cloudy
8:35 AM 42.8 °F - 37.4 °F 81% 29.77 in 10.0 mi Calm Calm - N/A   Overcast
8:55 AM 44.6 °F - 37.4 °F 76% 29.76 in 10.0 mi Calm Calm - N/A   Scattered Clouds
9:15 AM 44.6 °F - 35.6 °F 71% 29.74 in 10.0 mi Calm Calm - N/A   Clear
9:35 AM 46.4 °F - 35.6 °F 66% 29.73 in 10.0 mi Calm Calm - N/A   Clear
9:55 AM 46.4 °F - 35.6 °F 66% 29.74 in 10.0 mi Calm Calm - N/A   Scattered Clouds
10:15 AM 46.4 °F - 33.8 °F 62% 29.72 in 10.0 mi Calm Calm - N/A   Scattered Clouds
10:35 AM 46.4 °F 45.2 °F 33.8 °F 62% 29.71 in 10.0 mi NNE 3.5 mph - N/A   Clear
10:55 AM 51.8 °F - 33.8 °F 50% 29.71 in 10.0 mi NNE 6.9 mph - N/A   Clear
11:15 AM 50.0 °F - 32.0 °F 50% 29.70 in 10.0 mi NE 3.5 mph - N/A   Scattered Clouds
11:35 AM 51.8 °F - 33.8 °F 50% 29.69 in 10.0 mi ENE 5.8 mph - N/A   Mostly Cloudy
11:55 AM 53.6 °F - 35.6 °F 51% 29.68 in 10.0 mi NNE 5.8 mph - N/A   Scattered Clouds
12:15 PM 53.6 °F - 37.4 °F 54% 29.67 in 10.0 mi ENE 8.1 mph - N/A   Mostly Cloudy
12:35 PM 55.4 °F - 37.4 °F 51% 29.66 in 10.0 mi NNE 3.5 mph - N/A   Mostly Cloudy
12:55 PM 55.4 °F - 37.4 °F 51% 29.65 in 10.0 mi North 4.6 mph - N/A   Scattered Clouds
1:15 PM 55.4 °F - 37.4 °F 51% 29.64 in 10.0 mi Calm Calm - N/A   Scattered Clouds
1:35 PM 53.6 °F - 39.2 °F 58% 29.64 in 10.0 mi Calm Calm - N/A   Mostly Cloudy
1:55 PM 53.6 °F - 39.2 °F 58% 29.64 in 10.0 mi North 4.6 mph - N/A   Mostly Cloudy
2:15 PM 53.6 °F - 39.2 °F 58% 29.63 in 10.0 mi Calm Calm - N/A   Scattered Clouds
2:35 PM 53.6 °F - 37.4 °F 54% 29.62 in 10.0 mi NW 3.5 mph - N/A   Scattered Clouds
2:55 PM 53.6 °F - 37.4 °F 54% 29.63 in 10.0 mi NW 5.8 mph - N/A   Scattered Clouds
3:15 PM 53.6 °F - 37.4 °F 54% 29.63 in 10.0 mi WNW 5.8 mph - N/A   Scattered Clouds
3:35 PM 53.6 °F - 33.8 °F 47% 29.63 in 10.0 mi NNW 10.4 mph - N/A   Scattered Clouds
3:55 PM 51.8 °F - 33.8 °F 50% 29.64 in 10.0 mi NNW 5.8 mph - N/A   Clear
4:15 PM 51.8 °F - 33.8 °F 50% 29.65 in 10.0 mi NNW 5.8 mph - N/A   Scattered Clouds
4:35 PM 50.0 °F - 33.8 °F 54% 29.65 in 10.0 mi NW 8.1 mph - N/A   Clear
4:55 PM 50.0 °F - 33.8 °F 54% 29.66 in 10.0 mi Calm Calm - N/A   Clear
5:15 PM 50.0 °F - 33.8 °F 54% 29.67 in 10.0 mi NW 4.6 mph - N/A   Clear
5:35 PM 50.0 °F - 32.0 °F 50% 29.67 in 10.0 mi NW 3.5 mph - N/A   Clear
5:55 PM 50.0 °F - 32.0 °F 50% 29.69 in 10.0 mi Calm Calm - N/A   Clear
6:15 PM 50.0 °F - 32.0 °F 50% 29.70 in 10.0 mi Calm Calm - N/A   Scattered Clouds
6:35 PM 50.0 °F - 32.0 °F 50% 29.70 in 10.0 mi NNW 3.5 mph - N/A   Scattered Clouds
7:15 PM 46.4 °F - 33.8 °F 62% 29.72 in 10.0 mi Calm Calm - N/A   Scattered Clouds
7:35 PM 46.4 °F - 35.6 °F 66% 29.73 in 10.0 mi Calm Calm - N/A   Mostly Cloudy
7:55 PM 46.4 °F 42.9 °F 33.8 °F 62% 29.74 in 10.0 mi NW 6.9 mph - N/A   Mostly Cloudy
8:15 PM 46.4 °F 44.3 °F 33.8 °F 62% 29.75 in 10.0 mi WNW 4.6 mph - N/A   Scattered Clouds
8:35 PM 44.6 °F 42.2 °F 33.8 °F 66% 29.76 in 10.0 mi WNW 4.6 mph - N/A   Clear
8:55 PM 44.6 °F 42.2 °F 33.8 °F 66% 29.76 in 10.0 mi WNW 4.6 mph - N/A   Clear
9:15 PM 44.6 °F 43.1 °F 33.8 °F 66% 29.77 in 10.0 mi WNW 3.5 mph - N/A   Clear
9:35 PM 42.8 °F 41.1 °F 33.8 °F 70% 29.77 in 10.0 mi West 3.5 mph - N/A   Clear
9:55 PM 42.8 °F - 33.8 °F 70% 29.78 in 10.0 mi Calm Calm - N/A   Clear
10:15 PM 42.8 °F - 33.8 °F 70% 29.79 in 10.0 mi Calm Calm - N/A   Clear
10:35 PM 41.0 °F - 35.6 °F 81% 29.79 in 10.0 mi Calm Calm - N/A   Clear
10:55 PM 39.2 °F - 35.6 °F 87% 29.80 in 10.0 mi Calm Calm - N/A   Clear
11:15 PM 37.4 °F - 35.6 °F 93% 29.80 in 10.0 mi Calm Calm - N/A   Clear
11:35 PM 39.2 °F 35.9 °F 35.6 °F 87% 29.80 in 10.0 mi West 4.6 mph - N/A   Clear
11:55 PM 41.0 °F - 35.6 °F 81% 29.80 in 10.0 mi Calm Calm - N/A   Clear